Location: Montamat
(43.4852°N, 0.8444°E)
Time: 08:19:17
(UTC+00:00)

Cosmos 1354 Rocket - Pass Details

Date: 14 May 2026
Orbit: 761 x 778 km, 74.0° (Epoch: 6 June)

Event Time Altitude Azimuth Distance (km) Brightness Sun altitude
Rises 22:35:53 0° 336° (NNW) 3,243 8.6 -25.2°
Reaches altitude 10° 22:38:18 10° 333° (NNW) 2,310 7.5 -25.4°
Maximum altitude 22:43:27 63° 254° (WSW) 849 4.1 -25.7°
Enters shadow 22:43:44 62° 237° (WSW) 856 4.1 -25.7°
